University Park, PA

4:44 PM EDT on July 26, 2016 (GMT -0400)
University Park

Weather History for KUNV - February, 2014

Change the Weather History Date:

Saturday, February 15, 2014

  Actual Average Record
Temperature  
Mean Temperature 24 °F -  
Max Temperature 32 °F 36 °F 66 °F (1954)
Min Temperature 15 °F 18 °F -7 °F (1943)
Degree Days  
Heating Degree Days 41    
Moisture  
Dew Point 17 °F    
Average Humidity 71    
Maximum Humidity 89    
Minimum Humidity 43    
Precipitation  
Precipitation 0.00 in - - ()
Sea Level Pressure  
Sea Level Pressure 29.76 in    
Wind  
Wind Speed 5 mph (NW)    
Max Wind Speed 17 mph    
Max Gust Speed 23 mph    
Visibility 6 miles    
Events Snow    
Averages and records for this station are not official NWS values.
T = Trace of Precipitation, MM = Missing Value Source: NWS Daily Summary

Daily Weather History Graph

Daily Weather History Graph

Search for Another Location

Airport or City:

Trip Planner

Search our weather history database for the weather conditions in past years. The results will help you decide how hot, cold, wet, or windy it might be!

Date:

Astronomy

Feb. 15, 2014 Rise Set
Actual Time 7:05 AM EST 5:46 PM EST
Civil Twilight 6:37 AM EST 6:14 PM EST
Nautical Twilight 6:05 AM EST 6:46 PM EST
Astronomical Twilight 5:33 AM EST 7:18 PM EST
Moon 6:44 PM EST (2/15) 7:02 AM EST (2/15)
Length of Visible Light 11h 36m
Length of Day
10h 40m
Full, 100% of the Moon is Illuminated
Feb 15
Full
Feb 22
Last Quarter
Mar 1
New
Mar 8
First Quarter
Mar 16
Full

Hourly Weather History & Observations

Time (EST) Temp. Windchill Dew Point Humidity Pressure Visibility Wind Dir Wind Speed Gust Speed Precip Events Conditions
12:15 AM 27.7 °F 23.8 °F 18.9 °F 69% 29.72 in 10.0 mi South 3.5 mph - N/A   Overcast
12:35 AM 28.2 °F 23.1 °F 18.7 °F 67% 29.72 in 10.0 mi SSW 4.6 mph - N/A Snow Light Snow
12:55 AM 28.0 °F - 19.2 °F 70% 29.72 in 5.0 mi Calm Calm - N/A Snow Light Snow
1:15 AM 28.2 °F - 20.3 °F 72% 29.71 in 4.0 mi Calm Calm - N/A Snow Light Snow
1:35 AM 27.3 °F - 21.4 °F 78% 29.70 in 2.5 mi Calm Calm - N/A Snow Light Snow
1:55 AM 27.0 °F - 22.1 °F 82% 29.69 in 5.0 mi Calm Calm - N/A Snow Light Snow
2:15 AM 27.1 °F 23.2 °F 22.6 °F 83% 29.68 in 5.0 mi North 3.5 mph - N/A Snow Light Snow
2:35 AM 27.1 °F - 23.0 °F 84% 29.68 in 2.0 mi Calm Calm - N/A Snow Light Snow
2:55 AM 26.1 °F 21.9 °F 22.5 °F 86% 29.68 in 1.2 mi East 3.5 mph - N/A Snow Light Snow
3:15 AM 26.2 °F - 23.0 °F 88% 29.68 in 1.8 mi Calm Calm - N/A Snow Light Snow
3:35 AM 26.6 °F 19.1 °F 23.4 °F 88% 29.66 in 1.5 mi North 6.9 mph - N/A Snow Light Snow
3:55 AM 25.7 °F 20.1 °F 22.8 °F 89% 29.66 in 2.0 mi North 4.6 mph - N/A Snow Light Snow
4:15 AM 26.6 °F 20.0 °F 23.7 °F 89% 29.66 in 1.5 mi NNE 5.8 mph - N/A Snow Light Snow
4:35 AM 27.0 °F 19.5 °F 23.9 °F 88% 29.65 in 1.8 mi NNE 6.9 mph - N/A Snow Light Snow
4:55 AM 26.6 °F 18.2 °F 23.7 °F 89% 29.65 in 2.5 mi NNE 8.1 mph - N/A Snow Light Snow
5:15 AM 26.6 °F 18.2 °F 23.5 °F 88% 29.65 in 1.8 mi NNE 8.1 mph - N/A Snow Light Snow
5:35 AM 26.4 °F 18.9 °F 23.4 °F 88% 29.64 in 1.2 mi NE 6.9 mph - N/A Snow Light Snow
5:53 AM 26.6 °F 20.0 °F 23.0 °F 86% 29.66 in 1.0 mi Variable 5.8 mph - N/A Snow Light Snow
6:53 AM 26.6 °F 20.0 °F 23.0 °F 86% 29.68 in 1.0 mi Variable 5.8 mph - N/A Snow Light Snow
7:53 AM 26.6 °F 20.0 °F 23.0 °F 86% 29.69 in 1.5 mi Variable 5.8 mph - N/A Snow Light Snow
8:53 AM 28.4 °F 22.2 °F 24.8 °F 86% 29.71 in 1.8 mi Variable 5.8 mph - N/A Snow Light Snow
9:53 AM 28.4 °F 22.2 °F 24.8 °F 86% 29.73 in 1.0 mi Variable 5.8 mph - N/A Snow Light Snow
10:53 AM 30.2 °F 22.6 °F 24.8 °F 80% 29.76 in 1.0 mi North 8.1 mph - N/A Snow Light Snow
11:53 AM 30.2 °F 22.6 °F 23.0 °F 75% 29.75 in 2.0 mi North 8.1 mph - N/A Snow Light Snow
12:25 PM 32.0 °F 24.8 °F 21.2 °F 64% 29.73 in 4.0 mi NNW 8.1 mph - N/A   Overcast
12:53 PM 32.0 °F 22.1 °F 17.6 °F 55% 29.73 in 5.0 mi NNW 13.8 mph - N/A   Haze
1:53 PM 32.0 °F 23.0 °F 17.6 °F 55% 29.73 in 10.0 mi WNW 11.5 mph - N/A   Overcast
2:53 PM 30.2 °F 20.8 °F 15.8 °F 55% 29.74 in 10.0 mi West 11.5 mph - N/A   Overcast
3:51 PM 30.2 °F 20.8 °F 14.0 °F 51% 29.77 in 10.0 mi West 11.5 mph - N/A   Mostly Cloudy
4:50 PM 30.2 °F 18.5 °F 12.2 °F 47% 29.79 in 10.0 mi WNW 17.3 mph - N/A   Overcast
5:53 PM 28.4 °F 19.7 °F 10.4 °F 47% 29.82 in 10.0 mi NW 9.2 mph - N/A   Mostly Cloudy
6:53 PM 26.6 °F 15.7 °F 6.8 °F 43% 29.86 in 10.0 mi NW 12.7 mph 23.0 mph N/A   Scattered Clouds
7:53 PM 24.8 °F 15.3 °F 6.8 °F 46% 29.88 in 10.0 mi WNW 9.2 mph 18.4 mph N/A   Partly Cloudy
8:53 PM 21.2 °F 10.1 °F 6.8 °F 54% 29.91 in 10.0 mi WNW 10.4 mph 16.1 mph N/A   Scattered Clouds
9:55 PM 20.5 °F 9.2 °F 5.5 °F 53% 29.93 in 10.0 mi West 10.4 mph 18.4 mph N/A   Clear
10:15 PM 19.9 °F 7.3 °F 5.5 °F 54% 29.93 in 10.0 mi WNW 12.7 mph - N/A   Scattered Clouds
10:35 PM 19.0 °F 7.5 °F 5.2 °F 55% 29.93 in 10.0 mi WSW 10.4 mph 17.3 mph N/A   Mostly Cloudy
10:55 PM 18.0 °F 8.7 °F 4.8 °F 57% 29.94 in 10.0 mi SW 6.9 mph - N/A   Mostly Cloudy
11:15 PM 17.2 °F 5.2 °F 5.0 °F 59% 29.94 in 10.0 mi West 10.4 mph - N/A   Overcast
11:35 PM 16.3 °F 5.7 °F 4.1 °F 59% 29.94 in 10.0 mi West 8.1 mph 18.4 mph N/A   Mostly Cloudy
11:55 PM 15.1 °F 6.4 °F 3.4 °F 60% 29.94 in 10.0 mi WNW 5.8 mph - N/A   Scattered Clouds